User: anonymous   Login
Location: Caltech
(34.1382°N, 118.1253°W)
Time: 08:36:34
(UTC-08:00)
Language:

GPS 2-04 Rocket1 - Orbit

View from above orbital plane
View from above orbital plane
View from above satellite
View from above satellite

Ground track
Ground track

The orbit data is extracted from the following two-line orbital elements,

1 20303U 89085B   16339.85902039  .00001911  00000-0  70196-4 0  9995
2 20303  35.6293 172.2307 0110100 255.4370 103.4122 15.22482177470901
Epoch (UTC): 04 December 2016 20:36:59
Eccentricity: 0.0110100
inclination: 35.6293°
perigee height: 422 km
apogee height: 574 km
right ascension of ascending node: 172.2307°
argument of perigee: 255.4370°
revolutions per day: 15.22482177
mean anomaly at epoch: 103.4122°
orbit number at epoch: 47090

The dashed part of the orbit path shows where the satellite is in the earth's shadow,  

DLR